Tracking 18843 objects as of 20-November-2017
HD Live streaming from Space Station
objects crossing your sky now

FENGYUN 1C DEB

Track FENGYUN 1C DEB now!
10-day predictions


NORAD ID: 31224
Int'l Code: 1999-025BLE
Perigee: 698.4 km
Apogee: 941.9 km
Inclination: 98.6 °
Period: 101.1 minutes
Semi major axis: 7191 km
RCS: 0.0105 m2 (small)
Launch date: May 10, 1999
Source: People's Republic of China (PRC)
Launch site: Taiyaun Space Center, China (TSC)

Note: This is SATELLITE DEBRIS
aabbcc
Your satellite tracking list
Your tracking list is empty




NASA's NSSDC Master Catalog

Two Line Element Set (TLE):
1 31224U 99025BLE 17316.98580039  .00000194  00000-0  90315-4 0  9993
2 31224  98.6211  15.3280 0169337 165.9591 317.6559 14.23660292552200
Source of the keplerian elements: AFSPC